Tracking 29065 objects as of 22-Jul-2024
HD Live streaming from Space Station
objects crossing your sky now

COSMOS 1275 DEB

Track COSMOS 1275 DEB now!
10-day predictions


NORAD ID: 42205
Int'l Code: 1981-053TV
Perigee: 910.7 km
Apogee: 1,078.0 km
Inclination: 83.0 °
Period: 104.8 minutes
Semi major axis: 7365 km
RCS: Unknown
Launch date: June 4, 1981
Source: Commonwealth of Independent States (former USSR) (CIS)
Launch site: PLESETSK MISSILE AND SPACE COMPLEX (PKMTR)

Note: This is SATELLITE DEBRIS
Your satellite tracking list
Your tracking list is empty




NASA's NSSDC Master Catalog

Two Line Element Set (TLE):
1 42205U 81053TV  24201.97033775  .00002353  00000-0  24000-2 0  9991
2 42205  83.0359 103.0865 0113559 129.2537 231.8762 13.73455833532910
Source of the keplerian elements: AFSPC